Regional Weather Roundup
Issued by NWS

Home | Current Version | Previous Version | Text Only | Print | Product List | Glossary On
Versions: 1 2 3 4 5 6 7 8 9 10 11 12 13 14 15 16 17 18 19 20 21 22 23 24 25 26 27 28 29 30 31 32 33 34 35 36 37 38 39 40 41 42 43 44 45 46 47 48 49 50
000
ASUS43 KLSX 290259
RWRMO

WEATHER SUMMARY FOR MISSOURI
NATIONAL WEATHER SERVICE SPRINGFIELD MO
900 PM CST FRI NOV 28 2014

NOTE: "FAIR" INDICATES FEW OR NO CLOUDS BELOW 12,000 FEET WITH NO
       SIGNIFICANT WEATHER AND/OR OBSTRUCTIONS TO VISIBILITY.
       CURRENT SKY AND/OR WEATHER CONDITIONS ARE NOT AVAILABLE FOR
       CHILLICOTHE AND FARMINGTON.

MOZ001>031-035>038-043-044-053-054-290400-
...NORTHERN AND WESTERN MISSOURI...

CITY           SKY/WX    TMP DP  RH WIND       PRES   REMARKS
KANSAS CTY INT CLOUDY    53  36  52 S18G26    29.75F
KANSAS C DTWN  CLOUDY    56  36  47 S16       29.76F
LEE`S SUMMIT   CLOUDY    52  37  56 SW12      29.78F
ST JOSEPH      MOCLDY    51  36  56 S14       29.71F
CHILLICOTHE      N/A     49  36  61 S9        29.75F
KIRKSVILLE     MOCLDY    43  34  70 S9        29.78F

$$
MOZ066>068-077>081-088>096-101>105-290400-
...SOUTHWEST MISSOURI...

CITY           SKY/WX    TMP DP  RH WIND       PRES   REMARKS
SPRINGFIELD    PTCLDY    50  36  58 S13       29.89F
JOPLIN         CLOUDY    56  40  55 S17       29.87F

$$
MOZ032>034-039>042-045>050-055>058-069>072-290400-
...CENTRAL MISSOURI...

CITY           SKY/WX    TMP DP  RH WIND       PRES   REMARKS
COLUMBIA       MOCLDY    49  35  58 S10       29.84S
JEFFERSON CITY PTCLDY    51  35  54 S9        29.85F
ROLLA          PTCLDY    46  33  60 S18       29.87S
SEDALIA        PTCLDY    54  36  50 SW15      29.81F
OSAGE BEACH    CLEAR     50  34  53 S10G16    29.87S

$$
MOZ051-052-059>065-290400-
...EAST CENTRAL MISSOURI...

CITY           SKY/WX    TMP DP  RH WIND       PRES   REMARKS
ST LOUIS INTL  PTCLDY    45  33  63 S10       29.91F
SPIRIT OF STL  CLEAR     45  33  63 S5        29.89F
ST CHARLES     CLEAR     40  34  79 S10       29.90F

$$
MOZ072>076-082>087-097>100-106>115-290400-
...SOUTH CENTRAL AND SOUTHEAST MISSOURI...

CITY           SKY/WX    TMP DP  RH WIND       PRES   REMARKS
CAPE GIRARDEAU CLEAR     43  31  62 S12       30.02F
FARMINGTON     CLEAR     43  34  70 S14       29.95F
POPLAR BLUFF   CLEAR     44  32  62 S12       30.02S
WEST PLAINS    PTCLDY    44  32  62 S8        29.97S

$$


USA.gov is the U.S. government's official web portal to all federal, state and local government web resources and services.